Regional Weather Roundup
Issued by NWS Portland, ME

Home | Current Version | Previous Version | Text Only | Print | Product List | Glossary On
Versions: 1 2 3 4 5 6 7 8 9 10 11 12 13 14 15 16 17 18 19 20 21 22 23 24 25 26 27 28 29 30 31 32 33 34 35 36 37 38 39 40 41 42 43 44 45 46 47 48 49 50
000
ASUS41 KGYX 221210
RWRGYX
WEATHER ROUNDUP FOR MAINE AND NEW HAMPSHIRE
NATIONAL WEATHER SERVICE GRAY ME
800 AM EDT FRI MAY 22 2015

MEZ002-005-006-010-012-015-018-020-021-024-026-027-029-221300-
MAINE

CITY           SKY/WX    TMP DP  RH WIND       PRES   REMARKS
PORTLAND       CLOUDY    55  46  71 CALM      29.81R
6HR MIN TEMP:  52; 6HR MAX TEMP:  55;

BAR HARBOR     CLOUDY    48  48 100 S14       29.83S
WISCASSET      CLOUDY    53  45  74 SW6       29.82R
6HR MIN TEMP:  50; 6HR MAX TEMP:  53;

ROCKLAND       CLOUDY    50  46  87 S8        29.82S
FRYEBURG       PTSUNNY   57  44  62 CALM      29.80S
6HR MIN TEMP:  48; 6HR MAX TEMP:  57;

LEWISTONAUBURN CLOUDY    52  43  71 CALM      29.80S
AUGUSTA        PTSUNNY   50  45  83 CALM      29.80S
6HR MIN TEMP:  48; 6HR MAX TEMP:  50;

WATERVILLE     CLOUDY    50  43  76 SW6       29.78S
BANGOR         CLOUDY    50  45  83 S8        29.80S
6HR MIN TEMP:  48; 6HR MAX TEMP:  50;

GREENVILLE       N/A     49  40  71 SE5       29.75S
6HR MIN TEMP:  44; 6HR MAX TEMP:  50;

MILLINOCKET    CLOUDY    51  44  77 VRB5      29.80S
6HR MIN TEMP:  48; 6HR MAX TEMP:  51; 6HR PCP: TRACE;

HOULTON        CLOUDY    50  39  66 S5        29.78S
6HR MIN TEMP:  49; 6HR MAX TEMP:  53;

PRESQUE ISLE   CLOUDY    52  36  54 S12       29.76S
6HR MIN TEMP:  48; 6HR MAX TEMP:  52;

FRENCHVILLE    LGT RAIN  45  39  79 SE9       29.72F
6HR MIN TEMP:  40; 6HR MAX TEMP:  50; 6HR PCP: TRACE;

CARIBOU        CLOUDY    51  37  58 S8        29.75S
6HR MIN TEMP:  49; 6HR MAX TEMP:  51;

$$

NHZ002-005-008-009-011-012-014-221300-
NEW HAMPSHIRE

CITY           SKY/WX    TMP DP  RH WIND       PRES   REMARKS
PORTSMOUTH     PTSUNNY   56  43  61 W5        29.80R
ROCHESTER      CLOUDY    59  41  51 NW6       29.80R
6HR MIN TEMP:  52; 6HR MAX TEMP:  59;

NASHUA         PTSUNNY   58  39  49 NW7       29.82F
MANCHESTER     MOSUNNY   59  38  45 NW5       29.80S
6HR MIN TEMP:  54; 6HR MAX TEMP:  60;

CONCORD        MOSUNNY   57  44  62 CALM      29.81S
6HR MIN TEMP:  50; 6HR MAX TEMP:  57; 6HR PCP: TRACE;

LACONIA        SUNNY     57  37  47 SW7       29.79S
PLYMOUTH       FAIR      55  44  67 CALM      29.80F
BERLIN         MOSUNNY   56  37  49 SE3       29.78F
6HR MIN TEMP:  44; 6HR MAX TEMP:  56;

WHITEFIELD     MOSUNNY   57  39  51 VRB3      29.79F
6HR MIN TEMP:  43; 6HR MAX TEMP:  57;

JAFFREY        SUNNY     56  39  53 VRB3      29.83F
6HR MIN TEMP:  48; 6HR MAX TEMP:  56; 6HR PCP: TRACE;

KEENE          SUNNY     52  45  76 CALM      29.84S
LEBANON        PTSUNNY   56  41  57 S5        29.80F
6HR MIN TEMP:  43; 6HR MAX TEMP:  56;

MT WASHINGTON  NOT AVBL
$$

VTZ005-007-008-221300-
VERMONT

CITY           SKY/WX    TMP DP  RH WIND       PRES   REMARKS
ST JOHNSBURY     N/A     51  44  77 MISG      29.79R
MONTPELIER     CLOUDY    50  39  66 CALM      29.84R
BURLINGTON     CLOUDY    55  36  48 NW9       29.83R
$$

MAZ007-012-024-CTZ003-RIZ002-NYZ038-NYZ072-221300-
SOUTHERN NEW ENGLAND AND NY

CITY           SKY/WX    TMP DP  RH WIND       PRES   REMARKS
BOSTON         MOSUNNY   57  42  57 NW12      29.82F
WORCESTER      SUNNY     57  37  47 NW8       29.83S
NANTUCKET      LGT RAIN  50  47  89 E6        29.83S
PROVIDENCE     MOSUNNY   56  47  71 VRB3      29.84R
HARTFORD       MOSUNNY   60  43  53 NW6       29.85R
ALBANY         MOSUNNY   57  40  52 W8        29.87S
NEW YORK CITY  MOSUNNY   59  43  55 NW14      29.91R
$$

ANZ081-ANZ082-ANZ150-NHZ014-MEZ023>029-221300-
COASTAL MARINE OBSERVATIONS

STATION/POSITION TIME  TEMP    WIND        PRES    WAVE
                       AIR SEA DIR/SP/G            HT/PER
                 (UTC) (F)     (DEG/KT/KT) (MB)    (FT/S)
MOUNT DESERT ROC 1200   45     170/ 18/ 20   N/A
MATINICUS ROCK   1100   47     200/ 22/ 23   N/A
ISLE OF SHOALS   1100   51     210/ 11/ 12 1088.0S
JEFFREYS LEDGE   1103      48                N/A     3/ 5
CASHES LEDGE BUO 1150   49 48                N/A     5/ 5
GEORGES BANK BUO 1150   47 48   30/ 19/ 23 1081.0    3/ 3
$$

.............KEY..............
   WCI - WIND CHILL
   TC  - TEMPERATURE IN CELSIUS
   VSB - VISIBILITY IN MILES
   HX  - HEAT INDEX
   FAIR- INDICATES FEW OR NO CLOUDS BELOW 12,000 FT, WITH NO
         SIGNIFICANT WEATHER AND/OR OBSTRUCTIONS TO VISIBILITY.




USA.gov is the U.S. government's official web portal to all federal, state and local government web resources and services.